Time,TemperatureF,DewpointF,PressureIn,WindDirection,WindDirectionDegrees,WindSpeedMPH,WindSpeedGustMPH,Humidity,HourlyPrecipIn,Conditions,Clouds,dailyrainin,SoftwareType,DateUTC
2013-05-28 00:22:00,55.0,54.0,30.00,SW,236,3.0,-999.0,96,-99.99,,,-99.99,,2013-05-28 07:22:00,
2013-05-28 00:32:00,55.0,54.0,30.00,SW,236,3.0,-999.0,96,-99.99,,,-99.99,,2013-05-28 07:32:00,
2013-05-28 00:42:00,55.0,54.0,30.00,SW,236,3.0,-999.0,96,-99.99,,,-99.99,,2013-05-28 07:42:00,
2013-05-28 00:52:00,55.0,54.0,30.00,SW,236,3.0,-999.0,96,-99.99,,,-99.99,,2013-05-28 07:52:00,
2013-05-28 01:01:00,55.0,54.0,30.00,SW,236,3.0,-999.0,96,-99.99,,,-99.99,,2013-05-28 08:01:00,
2013-05-28 02:22:00,55.0,54.0,29.98,SW,236,5.0,-999.0,96,-99.99,,,-99.99,,2013-05-28 09:22:00,
2013-05-28 02:33:00,55.0,54.0,29.98,SW,236,5.0,-999.0,96,-99.99,,,-99.99,,2013-05-28 09:33:00,
2013-05-28 02:43:00,55.0,54.0,29.98,SW,236,5.0,-999.0,96,-99.99,,,-99.99,,2013-05-28 09:43:00,
2013-05-28 02:53:00,55.0,54.0,29.98,SW,236,5.0,-999.0,96,-99.99,,,-99.99,,2013-05-28 09:53:00,
2013-05-28 03:02:00,55.0,54.0,29.98,SW,236,5.0,-999.0,96,-99.99,,,-99.99,,2013-05-28 10:02:00,
2013-05-28 04:22:00,53.0,52.0,29.96,SW,221,4.0,-999.0,96,-99.99,,,-99.99,,2013-05-28 11:22:00,
2013-05-28 04:32:00,53.0,52.0,29.96,SW,221,4.0,-999.0,96,-99.99,,,-99.99,,2013-05-28 11:32:00,
2013-05-28 04:42:00,53.0,52.0,29.96,SW,221,4.0,-999.0,96,-99.99,,,-99.99,,2013-05-28 11:42:00,
2013-05-28 04:52:00,53.0,52.0,29.96,SW,221,4.0,-999.0,96,-99.99,,,-99.99,,2013-05-28 11:52:00,
2013-05-28 05:01:00,53.0,52.0,29.96,SW,221,4.0,-999.0,96,-99.99,,,-99.99,,2013-05-28 12:01:00,
2013-05-28 06:22:00,53.0,52.0,29.96,West,265,8.0,-999.0,96,-99.99,,,-99.99,,2013-05-28 13:22:00,
2013-05-28 06:32:00,53.0,52.0,29.96,West,265,8.0,-999.0,96,-99.99,,,-99.99,,2013-05-28 13:32:00,
2013-05-28 06:42:00,53.0,52.0,29.96,West,265,8.0,-999.0,96,-99.99,,,-99.99,,2013-05-28 13:42:00,
2013-05-28 06:52:00,53.0,52.0,29.96,West,265,8.0,-999.0,96,-99.99,,,-99.99,,2013-05-28 13:52:00,
2013-05-28 07:01:00,53.0,52.0,29.96,West,265,8.0,-999.0,96,-99.99,,,-99.99,,2013-05-28 14:01:00,
2013-05-28 08:21:00,54.0,53.0,29.96,SW,215,3.0,-999.0,97,-99.99,,,-99.99,,2013-05-28 15:21:00,
2013-05-28 08:33:00,54.0,53.0,29.96,SW,215,3.0,-999.0,97,-99.99,,,-99.99,,2013-05-28 15:33:00,
2013-05-28 08:43:00,54.0,53.0,29.96,SW,215,3.0,-999.0,97,-99.99,,,-99.99,,2013-05-28 15:43:00,
2013-05-28 08:53:00,54.0,53.0,29.96,SW,215,3.0,-999.0,97,-99.99,,,-99.99,,2013-05-28 15:53:00,
2013-05-28 09:02:00,54.0,53.0,29.96,SW,215,3.0,-999.0,97,-99.99,,,-99.99,,2013-05-28 16:02:00,
2013-05-28 10:32:00,55.0,54.0,29.99,SSW,194,4.0,-999.0,97,-99.99,,,-99.99,,2013-05-28 17:32:00,
2013-05-28 10:42:00,55.0,54.0,29.99,SSW,194,4.0,-999.0,97,-99.99,,,-99.99,,2013-05-28 17:42:00,
2013-05-28 10:52:00,55.0,54.0,29.99,SSW,194,4.0,-999.0,97,-99.99,,,-99.99,,2013-05-28 17:52:00,
2013-05-28 11:01:00,55.0,54.0,29.99,SSW,194,4.0,-999.0,97,-99.99,,,-99.99,,2013-05-28 18:01:00,
2013-05-28 12:21:00,56.0,55.0,29.99,WSW,257,8.0,-999.0,96,-99.99,,,-99.99,,2013-05-28 19:21:00,
2013-05-28 12:32:00,56.0,55.0,29.99,WSW,257,8.0,-999.0,96,-99.99,,,-99.99,,2013-05-28 19:32:00,
2013-05-28 12:42:00,56.0,55.0,29.99,WSW,257,8.0,-999.0,96,-99.99,,,-99.99,,2013-05-28 19:42:00,
2013-05-28 12:52:00,56.0,55.0,29.99,WSW,257,8.0,-999.0,96,-99.99,,,-99.99,,2013-05-28 19:52:00,
2013-05-28 13:01:00,56.0,55.0,29.99,WSW,257,8.0,-999.0,96,-99.99,,,-99.99,,2013-05-28 20:01:00,
2013-05-28 14:11:00,55.0,53.0,29.98,SW,235,15.0,-999.0,93,-99.99,,,-99.99,,2013-05-28 21:11:00,
2013-05-28 14:22:00,55.0,53.0,29.98,SW,235,15.0,-999.0,93,-99.99,,,-99.99,,2013-05-28 21:22:00,
2013-05-28 14:33:00,55.0,53.0,29.98,SW,235,15.0,-999.0,93,-99.99,,,-99.99,,2013-05-28 21:33:00,
2013-05-28 14:43:00,55.0,53.0,29.98,SW,235,15.0,-999.0,93,-99.99,,,-99.99,,2013-05-28 21:43:00,
2013-05-28 14:53:00,55.0,53.0,29.98,SW,235,15.0,-999.0,93,-99.99,,,-99.99,,2013-05-28 21:53:00,
2013-05-28 15:02:00,55.0,53.0,29.98,SW,235,15.0,-999.0,93,-99.99,,,-99.99,,2013-05-28 22:02:00,
2013-05-28 16:11:00,57.0,53.0,29.97,West,263,18.0,-999.0,88,-99.99,,,-99.99,,2013-05-28 23:11:00,
2013-05-28 16:22:00,57.0,53.0,29.97,West,263,18.0,-999.0,88,-99.99,,,-99.99,,2013-05-28 23:22:00,
2013-05-28 16:32:00,57.0,53.0,29.97,West,263,18.0,-999.0,88,-99.99,,,-99.99,,2013-05-28 23:32:00,
2013-05-28 16:42:00,57.0,53.0,29.97,West,263,18.0,-999.0,88,-99.99,,,-99.99,,2013-05-28 23:42:00,
2013-05-28 16:52:00,57.0,53.0,29.97,West,263,18.0,-999.0,88,-99.99,,,-99.99,,2013-05-28 23:52:00,
2013-05-28 17:01:00,57.0,53.0,29.97,West,263,18.0,-999.0,88,-99.99,,,-99.99,,2013-05-29 00:01:00,
2013-05-28 18:22:00,56.0,52.0,29.93,SSW,200,16.0,-999.0,88,-99.99,,,-99.99,,2013-05-29 01:22:00,
2013-05-28 18:32:00,56.0,52.0,29.93,SSW,200,16.0,-999.0,88,-99.99,,,-99.99,,2013-05-29 01:32:00,
2013-05-28 18:42:00,56.0,52.0,29.93,SSW,200,16.0,-999.0,88,-99.99,,,-99.99,,2013-05-29 01:42:00,
2013-05-28 18:52:00,56.0,52.0,29.93,SSW,200,16.0,-999.0,88,-99.99,,,-99.99,,2013-05-29 01:52:00,
2013-05-28 19:02:00,56.0,52.0,29.93,SSW,200,16.0,-999.0,88,-99.99,,,-99.99,,2013-05-29 02:02:00,
2013-05-28 20:22:00,53.0,51.0,29.93,WSW,242,17.0,-999.0,94,-99.99,,,-99.99,,2013-05-29 03:22:00,
2013-05-28 20:33:00,53.0,51.0,29.93,WSW,242,17.0,-999.0,94,-99.99,,,-99.99,,2013-05-29 03:33:00,
2013-05-28 20:43:00,53.0,51.0,29.93,WSW,242,17.0,-999.0,94,-99.99,,,-99.99,,2013-05-29 03:43:00,
2013-05-28 20:53:00,53.0,51.0,29.93,WSW,242,17.0,-999.0,94,-99.99,,,-99.99,,2013-05-29 03:53:00,
2013-05-28 21:02:00,53.0,51.0,29.93,WSW,242,17.0,-999.0,94,-99.99,,,-99.99,,2013-05-29 04:02:00,
2013-05-28 22:33:00,52.0,51.0,29.93,WSW,243,8.0,-999.0,95,-99.99,,,-99.99,,2013-05-29 05:33:00,
2013-05-28 22:42:00,52.0,51.0,29.93,WSW,243,8.0,-999.0,95,-99.99,,,-99.99,,2013-05-29 05:42:00,
2013-05-28 22:52:00,52.0,51.0,29.93,WSW,243,8.0,-999.0,95,-99.99,,,-99.99,,2013-05-29 05:52:00,
2013-05-28 23:01:00,52.0,51.0,29.93,WSW,243,8.0,-999.0,95,-99.99,,,-99.99,,2013-05-29 06:01:00,